TimeCST,TemperatureF,Dew PointF,Humidity,Sea Level PressureIn,VisibilityMPH,Wind Direction,Wind SpeedMPH,Gust SpeedMPH,PrecipitationIn,Events,Conditions,WindDirDegrees,DateUTC
12:56 AM,34.9,26.1,70,30.16,10.0,Calm,Calm,-,N/A,,Scattered Clouds,0,2013-02-16 06:56:00
1:56 AM,34.0,26.1,73,30.16,10.0,North,8.1,-,N/A,,Mostly Cloudy,360,2013-02-16 07:56:00
2:56 AM,32.0,24.1,73,30.15,10.0,North,3.5,-,N/A,,Clear,360,2013-02-16 08:56:00
3:56 AM,32.0,22.1,67,30.17,10.0,North,8.1,-,N/A,,Clear,360,2013-02-16 09:56:00
5:56 AM,27.1,20.1,75,30.18,10.0,North,4.6,-,N/A,,Clear,360,2013-02-16 11:56:00
6:56 AM,26.1,19.0,75,30.19,10.0,Calm,Calm,-,N/A,,Clear,0,2013-02-16 12:56:00
7:56 AM,30.0,20.1,67,30.20,10.0,North,5.8,-,N/A,,Clear,360,2013-02-16 13:56:00
8:56 AM,32.9,17.1,52,30.22,10.0,NNW,13.8,-,N/A,,Clear,330,2013-02-16 14:56:00
9:56 AM,36.0,15.1,43,30.22,10.0,NNW,9.2,-,N/A,,Partly Cloudy,340,2013-02-16 15:56:00
10:56 AM,36.9,13.1,38,30.22,10.0,North,11.5,-,N/A,,Scattered Clouds,360,2013-02-16 16:56:00
11:56 AM,37.9,11.1,33,30.20,10.0,NNW,15.0,21.9,N/A,,Partly Cloudy,340,2013-02-16 17:56:00
12:56 PM,38.8,11.1,32,30.19,10.0,WNW,10.4,16.1,N/A,,Mostly Cloudy,300,2013-02-16 18:56:00
1:56 PM,38.8,13.1,35,30.18,10.0,West,11.5,20.7,N/A,,Scattered Clouds,270,2013-02-16 19:56:00
2:56 PM,36.9,15.1,41,30.19,10.0,NNW,11.5,17.3,N/A,,Mostly Cloudy,330,2013-02-16 20:56:00
3:56 PM,34.9,18.1,51,30.20,10.0,NNW,16.1,27.6,0.00,,Mostly Cloudy,330,2013-02-16 21:56:00
4:56 PM,36.0,14.0,41,30.20,10.0,West,10.4,16.1,0.00,,Mostly Cloudy,280,2013-02-16 22:56:00
5:56 PM,32.9,14.0,46,30.22,10.0,NW,8.1,-,0.00,,Mostly Cloudy,320,2013-02-16 23:56:00
6:56 PM,31.1,14.0,49,30.24,10.0,Calm,Calm,-,N/A,,Clear,0,2013-02-17 00:56:00
7:56 PM,29.1,14.0,53,30.26,10.0,Calm,Calm,-,N/A,,Clear,0,2013-02-17 01:56:00
8:56 PM,28.0,14.0,56,30.28,10.0,Calm,Calm,-,N/A,,Clear,0,2013-02-17 02:56:00
9:56 PM,27.1,13.1,56,30.28,10.0,Calm,Calm,-,N/A,,Clear,0,2013-02-17 03:56:00
10:56 PM,26.1,12.0,55,30.28,10.0,Calm,Calm,-,N/A,,Clear,0,2013-02-17 04:56:00
11:56 PM,24.1,13.1,63,30.28,10.0,Calm,Calm,-,N/A,,Clear,0,2013-02-17 05:56:00